Location: Alphen
(52.1351°N, 4.6549°E)
Time: 01:48:19
(UTC+00:00)

Cosmos 1602 Rocket - Pass Details

Date: 27 January 2021
Orbit: 604 x 632 km, 82.5° (Epoch: 27 February)

Event Time Altitude Azimuth Distance (km) Brightness Sun altitude
Exits shadow 04:40:25 60° 23° (NNE) 725 3.9 -25.7°
Maximum altitude 04:41:03 72° 77° (ENE) 669 3.7 -25.6°
Drops below altitude 10° 04:45:31 10° 163° (SSE) 2,012 6.3 -24.9°
Sets 04:47:46 0° 165° (SSE) 2,916 7.2 -24.6°
